Showing default

IRIDE FM2, 66696

Orbit data source: Space-Track

IRIDE FM2, 66696 is an Italian payload satellite in SSO that was launched on Fri, 28 Nov 2025 UTC via an FALCON 9 launch vehicle from the Air Force Western Test Range (AFWTR). Payload-class satellites include a variety of spacecraft equipped with specific instruments for various scientific and technological missions. These include communications satellites like Starlink; space stations such as the ISS; scientific satellites like the Hubble; Earth observation satellites from companies like Planet Labs, Umbra, and HawkEye 360; GPS; miniature CubeSats for education and research; and military/defense satellites.

Loading next visibility...
Identifier
66696, 2025-276AG
Orbit
SSO
Country
Flag of ITIT
Related business
Manufacturer
OHB-I
Mission
Operational Commercial Technology
Bus & Motor
EAGLET, Unknown motor
Mass
25 kg wet, 25 kg dry
Launch date (UTC)
2025-11-28 (6 months ago)
Launch vehicle
FALCON 9
Launch site
Air Force Western Test Range (AFWTR)
Object type
Payload
Rocket body
Debris
Shape & HBR
Box + 2 Pan, 1.0 m
Radar Cross Section
0.368 m²

Expand to show TLE details & history
Last TLE update: 6 hours ago

TLE from 6 hours ago
0 IRIDE FM2
1 66696U 25276AG  26144.93567891  .00006978  00000-0  32641-3 0  9999
2 66696  97.4189 218.8869 0005393  95.1141 265.0709 15.20055933 26893
Epoch: 2026-05-24T22:27Z
TLE epoch observation values (Epoch: 2026-05-24T22:27:22.657Z)
Latitude
-0.00012°
Longitude
-0.48817°
Altitude
509.083 km
Speed
7.609 km/s
True Right ascension
14h 35m 32s
True Declination
0° 00' 00"
Sunlit
Object was in full shadow at epoch
Visualization orbit readout
Latitude
Unknown
Longitude
Unknown
Altitude
Unknown
Speed
Unknown
Apparent Right ascension
Unknown
Apparent Declination
Unknown
Sunlit
N/A
Visualization observer readout
Local Sidereal Time
13:55:17
Azimuth
Unknown
Elevation
Unknown
Doppler factor
Unknown
Orbital elements
Apogee altitude
506.349 km
Perigee altitude
498.927 km
Semi-major axis
6,880.775 km
Eccentricity
0.00054
Inclination
97.4189°
RAAN
218.8869°
Arg. of periapsis
95.1141°
True anomaly
265.00933°
Mean anomaly
265.0709°
Eccentric anomaly
265.04012°
Mean motion
3.80266 °/min
Orbital period
94.67 mins
BSTAR
0.00032641
Loading maneuver chart data...
Computing Atmospheric mass density...
Loading historical data...
Loading historical data...
Loading historical data...
Loading historical data...
Loading historical data...
Loading historical data...
Loading historical data...

Documentation

Showing up to 5 results
|